Weather History for Szolnok, Hungary

Change the Weather History Date:

Saturday, October 6, 2012

  Actual Average (LHBP) Record (LHBP)
Temperature  
Mean Temperature 62 °F -  
Max Temperature 75 °F 64 °F 75 °F (1997)
Min Temperature 48 °F 45 °F 32 °F (2013)
Degree Days  
Heating Degree Days 4    
Growing Degree Days 12 (Base 50)    
Moisture  
Dew Point 44 °F    
Average Humidity 57    
Maximum Humidity 76    
Minimum Humidity 31    
Precipitation  
Precipitation 0.00 in - - ()
Sea Level Pressure  
Sea Level Pressure 30.08 in    
Wind  
Wind Speed 4 mph ()    
Max Wind Speed 11 mph    
Max Gust Speed -    
Visibility 2.7 miles    
Events Fog    
Averages and records for this station are not official NWS values.
T = Trace of Precipitation, MM = Missing Value Source: Averaged Metar Reports

Daily Weather History Graph

Daily Weather History Graph

Search for Another Location

Airport:

Trip Planner

Search our weather history database for the weather conditions in past years. The results will help you decide how hot, cold, wet, or windy it might be!

Date:

Astronomy

Oct. 06, 2012 Rise Set
Actual Time 6:44 AM CEST 6:08 PM CEST
Civil Twilight 6:14 AM CEST 6:38 PM CEST
Nautical Twilight 5:39 AM CEST 7:14 PM CEST
Astronomical Twilight 5:03 AM CEST 7:49 PM CEST
Moon 9:49 PM CEST (10/6) 12:44 PM CEST (10/6)
Length of Visible Light 12h 24m
Length of Day
11h 23m
Waning Gibbous, 68% of the Moon is Illuminated
Oct 6
Waning Gibbous
Oct 8
Last Quarter
Oct 15
New
Oct 22
First Quarter
Oct 29
Full

Hourly Weather History & Observations

Time (CEST) Temp. Dew Point Humidity Pressure Visibility Wind Dir Wind Speed Gust Speed Precip Events Conditions
12:15 AM 51.8 °F 42.8 °F 71% 30.12 in - South 2.2 mph - N/A   Clear
12:45 AM 53.6 °F 42.8 °F 67% 30.12 in - South 2.2 mph - N/A   Clear
1:15 AM 50.0 °F 42.8 °F 76% 30.12 in - Variable 2.2 mph - N/A   Clear
1:45 AM 50.0 °F 42.8 °F 76% 30.12 in - South 2.2 mph - N/A   Clear
2:15 AM 50.0 °F 42.8 °F 76% 30.12 in - South 2.2 mph - N/A   Clear
2:45 AM 50.0 °F 42.8 °F 76% 30.12 in - South 2.2 mph - N/A   Clear
3:15 AM 50.0 °F 42.8 °F 76% 30.12 in - South 6.7 mph - N/A   Clear
3:45 AM - - N/A% - 1.9 mi Variable 4.5 mph - N/A   Clear
4:15 AM 51.8 °F 41.0 °F 67% 30.12 in - SSW 4.5 mph - N/A   Clear
4:45 AM 51.8 °F 41.0 °F 67% 30.12 in - SSW 4.5 mph - N/A   Clear
5:15 AM 50.0 °F 41.0 °F 71% 30.12 in - South 2.2 mph - N/A   Clear
5:45 AM 48.2 °F 41.0 °F 76% 30.12 in - South 2.2 mph - N/A   Clear
6:15 AM 50.0 °F 39.2 °F 66% 30.12 in - South 4.5 mph - N/A   Clear
6:45 AM 50.0 °F 37.4 °F 62% 30.12 in - South 2.2 mph - N/A   Clear
7:15 AM 48.2 °F 39.2 °F 71% 30.12 in - South 4.5 mph - N/A   Clear
7:45 AM 51.8 °F 41.0 °F 67% 30.12 in - South 4.5 mph - N/A   Clear
8:15 AM 53.6 °F 39.2 °F 58% 30.12 in - South 4.5 mph - N/A   Clear
8:45 AM 55.4 °F 41.0 °F 58% 30.12 in - South 4.5 mph - N/A   Clear
9:15 AM 59.0 °F 39.2 °F 48% 30.12 in - South 4.5 mph - N/A   Clear
9:45 AM - - N/A% - - South 6.7 mph - N/A   Clear
10:15 AM 62.6 °F 41.0 °F 45% 30.12 in - South 8.9 mph - N/A   Clear
10:45 AM 66.2 °F 41.0 °F 40% 30.12 in - South 8.9 mph - N/A   Clear
11:15 AM 68.0 °F 42.8 °F 40% 30.12 in - SSW 8.9 mph - N/A   Clear
11:45 AM 69.8 °F 41.0 °F 35% 30.12 in - SSW 8.9 mph - N/A   Clear
12:15 PM 69.8 °F 41.0 °F 35% 30.12 in - SSW 6.7 mph - N/A   Clear
12:45 PM 71.6 °F 42.8 °F 35% 30.09 in - SSW 8.9 mph - N/A   Clear
1:15 PM 73.4 °F 41.0 °F 31% 30.09 in - SW 6.7 mph - N/A   Clear
1:45 PM 73.4 °F 44.6 °F 36% 30.06 in - SSW 11.2 mph - N/A   Clear
2:15 PM 73.4 °F 44.6 °F 36% 30.06 in - SSW 8.9 mph - N/A   Clear
2:45 PM 75.2 °F 46.4 °F 36% 30.06 in - SSW 11.2 mph - N/A   Clear
3:15 PM 75.2 °F 48.2 °F 38% 30.04 in - South 8.9 mph - N/A   Clear
3:45 PM - - N/A% - - SSW 8.9 mph - N/A   Clear
4:15 PM 73.4 °F 48.2 °F 41% 30.04 in - SSW 8.9 mph - N/A   Clear
4:45 PM 73.4 °F 48.2 °F 41% 30.01 in - SSW 8.9 mph - N/A   Clear
5:15 PM 71.6 °F 50.0 °F 46% 30.01 in - South 8.9 mph - N/A   Clear
5:45 PM 69.8 °F 50.0 °F 49% 30.01 in - South 8.9 mph - N/A   Clear
6:15 PM 68.0 °F 50.0 °F 52% 30.01 in - South 4.5 mph - N/A   Clear
6:45 PM - - N/A% - 3.1 mi South 4.5 mph - N/A Fog Clear
7:15 PM 66.2 °F 50.0 °F 56% 30.01 in - South 4.5 mph - N/A   Clear
7:45 PM 64.4 °F 50.0 °F 59% 30.01 in - South 4.5 mph - N/A   Clear
8:15 PM 62.6 °F 50.0 °F 63% 30.01 in - SW 2.2 mph - N/A   Clear
8:45 PM 59.0 °F 50.0 °F 72% 30.01 in - SSW 2.2 mph - N/A   Clear
9:15 PM 59.0 °F 50.0 °F 72% 30.01 in - SW 2.2 mph - N/A   Clear
9:45 PM - - N/A% - 3.1 mi SSW 4.5 mph - N/A Fog Clear
10:15 PM 59.0 °F 50.0 °F 72% 30.01 in - SSW 2.2 mph - N/A   Clear
10:45 PM 59.0 °F 50.0 °F 72% 30.01 in - SSW 2.2 mph - N/A   Clear
11:15 PM 60.8 °F 48.2 °F 63% 30.01 in - SW 4.5 mph - N/A   Clear
11:45 PM 59.0 °F 48.2 °F 67% 29.98 in - SW 4.5 mph - N/A   Clear